KK7N Weather Reports


Display with metric or nautical units.
time (UTC)temp
F
wind
direction
speed
MPH
gust
MPH
rain 1hr
in
rain 24hr
in
rain mn
in
humidity
%
barometer
mb
20260507234553 72 0 2.0 5.0 0.00 0.00 0.00 36 1017.0
20260507233043 72 308 1.0 4.0 0.00 0.00 0.00 43 1017.0
20260507231549 71 305 0.0 5.0 0.00 0.00 0.00 39 1017.1
20260507230050 72 310 1.0 9.0 0.00 0.00 0.00 40 1017.3
20260507224549 71 284 3.0 10.0 0.00 0.00 0.00 39 1017.4
20260507223054 71 285 1.0 10.0 0.00 0.00 0.00 37 1017.6
20260507221548 70 294 1.0 7.0 0.00 0.00 0.00 41 1017.6
20260507220051 70 297 0.0 8.0 0.00 0.00 0.00 49 1017.9
20260507214548 70 294 3.0 7.0 0.00 0.00 0.00 46 1018.2
20260507213054 69 288 1.0 4.0 0.00 0.00 0.00 47 1018.5
20260507211547 69 288 1.0 7.0 0.00 0.00 0.00 48 1018.6
20260507210052 68 308 2.0 8.0 0.00 0.00 0.00 49 1018.9
20260507204552 68 298 1.0 8.0 0.00 0.00 0.00 50 1019.1
20260507203050 67 0 0.0 7.0 0.00 0.00 0.00 54 1019.1
20260507201544 67 284 0.0 4.0 0.00 0.00 0.00 58 1019.3
20260507200047 66 284 0.0 4.0 0.00 0.00 0.00 60 1019.4
20260507194545 66 286 4.0 9.0 0.00 0.00 0.00 54 1019.6
20260507193051 65 176 0.0 4.0 0.00 0.00 0.00 55 1019.7
20260507191551 65 221 0.0 7.0 0.00 0.00 0.00 57 1019.9
20260507190042 64 0 1.0 3.0 0.00 0.00 0.00 60 1020.1
20260507184547 63 0 5.0 9.0 0.00 0.00 0.00 58 1020.3
20260507183045 63 273 0.0 8.0 0.00 0.00 0.00 58 1020.4
20260507181543 62 294 3.0 8.0 0.00 0.00 0.00 60 1020.7
20260507180047 62 227 4.0 7.0 0.00 0.00 0.00 59 1020.7
20260507174547 62 295 0.0 5.0 0.00 0.00 0.00 58 1020.9
20260507173045 61 304 0.0 4.0 0.00 0.00 0.00 64 1021.0
20260507171558 60 0 0.0 7.0 0.00 0.00 0.00 64 1021.1
20260507170052 59 283 0.0 4.0 0.00 0.00 0.00 66 1021.0
20260507164549 57 0 1.0 6.0 0.00 0.00 0.00 70 1021.1
20260507163048 56 281 1.0 6.0 0.00 0.00 0.00 72 1021.0
20260507161543 54 281 2.0 6.0 0.00 0.00 0.00 75 1021.1
20260507160048 53 281 0.0 5.0 0.00 0.00 0.00 75 1021.1
20260507154550 53 277 2.0 7.0 0.00 0.00 0.00 75 1021.2
20260507153042 53 0 1.0 4.0 0.00 0.00 0.00 76 1021.2
20260507151548 52 285 1.0 6.0 0.00 0.00 0.00 76 1021.3
20260507150047 52 292 0.0 3.0 0.00 0.00 0.00 77 1021.3
20260507144613 51 0 0.0 8.0 0.00 0.00 0.00 77 1021.2
20260507143054 51 281 2.0 7.0 0.00 0.00 0.00 77 1021.2
20260507141548 51 293 1.0 4.0 0.00 0.00 0.00 78 1021.1
20260507140050 51 0 0.0 7.0 0.00 0.00 0.00 78 1021.0
20260507134544 51 293 3.0 7.0 0.00 0.00 0.00 78 1020.9
20260507133044 51 277 1.0 4.0 0.00 0.00 0.00 77 1020.7
20260507131544 51 0 0.0 6.0 0.00 0.00 0.00 77 1020.7
20260507130043 51 275 1.0 4.0 0.00 0.00 0.00 77 1020.8
20260507124549 52 298 1.0 9.0 0.00 0.00 0.00 76 1020.7
20260507123047 52 302 2.0 9.0 0.00 0.00 0.00 76 1020.7
20260507121542 52 336 4.0 9.0 0.00 0.00 0.00 75 1020.8
20260507120042 52 273 2.0 7.0 0.00 0.00 0.00 76 1020.8
20260507114539 53 294 4.0 8.0 0.00 0.00 0.00 75 1020.8
20260507113045 53 301 4.0 9.0 0.00 0.00 0.00 75 1020.8
20260507111548 53 323 5.0 8.0 0.00 0.00 0.00 75 1020.8
20260507110054 53 317 3.0 10.0 0.00 0.00 0.00 76 1020.8
20260507104543 53 344 1.0 6.0 0.00 0.00 0.00 76 1020.9
20260507103042 53 327 3.0 9.0 0.00 0.00 0.00 76 1020.9
20260507101550 54 300 3.0 10.0 0.00 0.00 0.00 77 1021.0
20260507100045 54 284 3.0 9.0 0.00 0.00 0.00 77 1021.1
20260507094547 54 297 5.0 11.0 0.00 0.00 0.00 77 1021.2
20260507093046 54 290 5.0 9.0 0.00 0.00 0.00 78 1021.3
20260507091542 54 288 3.0 6.0 0.00 0.00 0.00 77 1021.4
20260507090047 54 323 3.0 8.0 0.00 0.00 0.00 77 1021.3
20260507084547 55 284 1.0 7.0 0.00 0.00 0.00 78 1021.4
20260507083043 55 316 2.0 5.0 0.00 0.00 0.00 78 1021.4
20260507081542 55 287 2.0 8.0 0.00 0.00 0.00 78 1021.5
20260507080048 55 350 2.0 8.0 0.00 0.00 0.00 78 1021.5
20260507074545 55 299 5.0 10.0 0.00 0.00 0.00 78 1021.5
20260507073044 55 298 2.0 8.0 0.00 0.00 0.00 78 1021.5
20260507071543 55 294 2.0 5.0 0.00 0.00 0.00 78 1021.4
20260507070044 55 292 2.0 7.0 0.00 0.00 0.00 77 1021.4
20260507064541 55 292 2.0 8.0 0.00 0.00 0.00 77 1021.5
20260507063048 55 313 4.0 10.0 0.00 0.00 0.00 77 1021.5
20260507061544 56 327 4.0 11.0 0.00 0.00 0.00 77 1021.5
20260507060052 56 298 5.0 11.0 0.00 0.00 0.00 77 1021.5
20260507054548 56 288 5.0 11.0 0.00 0.00 0.00 76 1021.5
20260507053042 56 306 5.0 11.0 0.00 0.00 0.00 75 1021.4
20260507051549 57 316 6.0 10.0 0.00 0.00 0.00 75 1021.4
20260507050046 57 274 4.0 9.0 0.00 0.00 0.00 75 1021.5
20260507044558 58 334 4.0 9.0 0.00 0.00 0.00 75 1021.5
20260507043044 58 308 2.0 10.0 0.00 0.00 0.00 75 1021.3
20260507041543 59 311 6.0 12.0 0.00 0.00 0.00 74 1021.2
20260507040039 59 313 6.0 14.0 0.00 0.00 0.00 74 1020.9
20260507034545 60 285 5.0 12.0 0.00 0.00 0.00 74 1020.7
20260507033044 60 333 6.0 11.0 0.00 0.00 0.00 74 1020.5
20260507031543 61 289 6.0 12.0 0.00 0.00 0.00 73 1020.3
20260507030045 62 289 6.0 11.0 0.00 0.00 0.00 72 1020.2
20260507024545 63 286 4.0 13.0 0.00 0.00 0.00 71 1019.9
20260507023044 64 290 5.0 11.0 0.00 0.00 0.00 69 1020.0
20260507021542 65 333 4.0 11.0 0.00 0.00 0.00 68 1020.0
20260507020051 65 323 5.0 12.0 0.00 0.00 0.00 68 1020.1
20260507014553 66 308 7.0 12.0 0.00 0.00 0.00 67 1020.2
20260507013056 66 283 6.0 12.0 0.00 0.00 0.00 67 1020.0
20260507011544 66 0 0.0 2.0 0.00 0.00 0.00 71 1020.0
20260507010045 67 336 1.0 8.0 0.00 0.00 0.00 72 1019.9
20260507004543 67 0 0.0 2.0 0.00 0.00 0.00 71 1020.0
20260507003045 67 0 0.0 4.0 0.00 0.00 0.00 69 1020.0
20260507001544 67 0 0.0 2.0 0.00 0.00 0.00 68 1019.9
20260507000048 67 0 0.0 5.0 0.00 0.00 0.00 69 1019.9